Regional Weather Roundup
Issued by NWS Green Bay, WI

Home | Current Version | Previous Version | Graphics & Text | Print | Product List | Glossary Off
Versions: 1 2 3 4 5 6 7 8 9 10 11 12 13 14 15 16 17 18 19 20 21 22 23 24 25 26 27 28 29 30 31 32 33 34 35 36 37 38 39 40 41 42 43 44 45 46 47 48 49 50

000
ASUS43 KGRB 280611
RWRGRB

NORTH-CENTRAL AND NORTHEAST WISCONSIN REGIONAL WEATHER ROUNDUP
NATIONAL WEATHER SERVICE GREEN BAY WI
100 AM CDT SUN AUG 28 2016

WIZ005-009-010>012-018-019-280700-
NORTH CENTRAL WISCONSIN

CITY           SKY/WX    TMP DP  RH WIND       PRES   REMARKS
IRONWOOD       NOT AVBL
MANITOWISH WTR CLOUDY    61  61 100 SW6       30.09R
ARBOR VITAE    CLOUDY    62  61  96 SW3       30.09S
EAGLE RIVER    DRIZZLE   62  62 100 SW5       30.09S
LAND O LAKES   CLOUDY    62  62 100 SW5       30.10S FOG
RHINELANDER    CLOUDY    63  63 100 SW8       30.10S
PHILLIPS       CLOUDY    62  62 100 W3        30.09S
ANTIGO         CLOUDY    61  61 100 CALM      30.10S FOG
TOMAHAWK       CLOUDY    62  61  97 CALM      30.11R FOG
MERRILL        CLOUDY    64  64 100 W6        30.10S FOG
$$

WIZ013-073-280700-
NORTHEAST WISCONSIN

CITY           SKY/WX    TMP DP  RH WIND       PRES   REMARKS
IRON MOUNTAIN  CLOUDY    63  59  87 CALM      30.07S
MARINETTE      CLOUDY   N/A N/A N/A CALM      30.08S
OCONTO         MOCLDY    63  61  94 CALM      30.08S
$$

WIZ017-030-035>037-045-280700-
CENTRAL WISCONSIN

CITY           SKY/WX    TMP DP  RH WIND       PRES   REMARKS
MEDFORD        CLOUDY    62  62 100 SW3       30.10S FOG
WAUSAU         CLOUDY    63  62  97 SW8       30.09R
MOSINEE        CLOUDY    63  63 100 SW5       30.11S FOG
MARSHFIELD     FOG       65  62  90 SW7       30.10S VSB 1/4
WISC RAPIDS    CLOUDY    65  65 100 SW6       30.11S FOG
STEVENS POINT  CLOUDY    62  62 100 SW5       30.11S
WAUPACA        FOG       64  64  98 SW3       30.11R VSB 1/4
SHAWANO        CLOUDY    65  63  93 SW5       30.09S
CLINTONVILLE   FOG       61  61 100 CALM      30.09S VSB 1/4
WAUTOMA        CLOUDY    64  63  96 SW5       30.12S
$$

WIZ038-039-048-051-280700-
FOX VALLEY

CITY           SKY/WX    TMP DP  RH WIND       PRES   REMARKS
NWS GREEN BAY  FAIR      62  62 100 S5        30.09S FOG
APPLETON       FAIR      61  61 100 S5        30.09S FOG
OSHKOSH        FOG       63  62  97 S6        30.10S VSB 1/2
FOND DU LAC    CLOUDY    66  64  93 SW3       30.11S
$$

WIZ022-050-052-280700-
EAST CENTRAL WISCONSIN

CITY           SKY/WX    TMP DP  RH WIND       PRES   REMARKS
EPHRAIM        CLOUDY    64  64  99 W8        30.07S
WASHINGTON ISL NOT AVBL
STURGEON BAY   CLOUDY    64  63  96 SW5       30.09S
MANITOWOC      CLOUDY    65  64  97 MISG      30.10S FOG
SHEBOYGAN      FAIR      64  63  96 W3        30.09F FOG
$$

LMZ563-521-522-541>543-280700-
LAKESHORE

STATION/POSITION TIME  TEMP    WIND        PRES    VSBY  WAVE
                       AIR SEA DIR/SP/G                  HT/PER
                 (UTC) (F)     (DEG/KT/KT) (MB)    (MI)  (FT/S)
SHEBOYGAN LKSHOR 0600   65     250/  4/  5 1018.7F
KEWAUNEE LKSHORE 0500   64     210/  4/  5 1018.4R
NORTHPORT PIER   0500   64     150/  2/  3 1017.9
N MID LAKE BUOY  0550   67 70  250/ 10/ 12 1017.1S         1
S GREEN BAY BUOY 0530   68 71  230/ 10/ 12 1018.2R
SISTER BAY LKSHO 0522   66     230/  6/  7   N/A
CHAMBERS ISLAND  0500   65     230/  4/  6 1018.3S
MENOMINEE LKSHOR 0500   66     240/  5/  7 1017.6S
$$




USA.gov is the U.S. government's official web portal to all federal, state and local government web resources and services.